GFSNW_con_3kmhel_318.txt.gz
Helicity
63 53 39 39 55 65 188 74 51 102 93 37 29 105 76 71 113 129 123 134 142 165 108 162 123 189 155 102 96 135 101 82 95 7 -30 -35 -24 151 93 55 86 105 109 63
69 78 63 61 64 97 195 120 66 116 136 110 144 109 92 128 138 129 130 129 145 152 148 136 157 141 175 99 87 96 105 45 32 0 -5 -3 -20 130 46 57 58 81 68 30
55 71 78 82 97 109 184 135 114 123 178 141 201 199 177 172 113 119 124 125 142 168 158 149 132 172 112 72 92 29 60 84 4 -8 -31 -106 -49 126 144 -28 49 42 76 60
44 70 81 84 132 124 164 138 212 225 266 212 206 244 220 200 169 145 141 112 164 148 187 168 169 139 101 39 47 59 65 52 73 67 23 -42 -62 68 117 132 111 11 10 89
41 74 84 74 115 185 194 171 240 335 248 230 240 214 231 246 215 220 187 193 69 155 203 223 185 154 142 98 55 63 51 47 63 64 4 -22 -54 27 56 57 181 91 45 71
41 62 76 76 84 220 210 249 253 309 259 292 288 257 230 262 204 159 199 168 121 141 153 171 131 113 132 152 90 60 84 74 7 -1 8 -41 7 26 17 2 96 74 95 148
47 58 67 73 80 159 243 253 260 307 324 323 273 288 205 177 199 194 148 148 214 140 71 83 121 162 133 152 86 57 22 67 60 11 16 31 -19 -23 9 4 52 120 147 161
39 52 53 67 66 118 320 276 255 295 381 318 223 266 236 165 165 197 200 171 148 85 114 125 120 127 129 110 80 62 -14 35 52 56 38 32 -4 28 39 42 56 102 170 188
54 58 55 59 67 72 251 254 274 273 289 284 297 260 227 233 213 168 158 150 81 111 174 209 244 202 124 116 66 67 43 16 20 19 37 43 35 43 0 -34 37 92 113 151
49 54 62 90 151 141 180 172 218 264 307 262 290 229 247 213 220 247 193 153 155 168 261 340 319 251 174 175 131 73 0 -26 33 33 -3 30 87 26 -53 42 73 49 45 81
48 52 71 154 131 116 186 222 234 268 316 278 226 200 222 216 222 238 208 214 225 268 381 370 320 306 218 229 205 134 73 22 -10 -25 10 12 125 -23 -15 -29 -10 15 5 5
59 60 122 135 147 134 210 248 249 258 287 275 243 150 146 127 125 198 205 245 245 245 364 315 336 326 296 272 273 186 158 120 88 62 19 14 -26 -80 -66 -45 -14 -1 36 36
64 108 107 129 115 116 184 262 283 308 266 198 166 245 195 162 121 113 233 233 213 231 190 274 332 353 316 353 333 313 291 320 245 115 90 45 -7 -71 -51 -22 11 17 13 38
110 114 110 91 93 110 205 281 240 250 253 222 211 169 230 144 98 101 118 161 143 119 169 288 342 339 258 382 393 401 361 299 227 175 151 99 18 -31 -45 4 9 34 31 7
146 130 100 104 122 212 263 281 236 192 239 278 233 191 190 157 146 181 183 197 246 267 303 302 361 320 293 335 424 494 305 234 184 156 101 36 30 18 2 12 11 32 50 58
182 133 113 139 180 194 193 223 203 217 189 226 265 220 259 215 200 244 281 206 236 221 278 368 363 397 326 351 387 282 250 213 161 81 91 54 40 40 35 28 39 41 16 40
197 143 146 178 174 189 240 253 218 175 142 218 244 276 244 271 277 224 266 138 261 287 353 389 328 318 240 283 343 220 208 194 152 142 106 58 55 37 59 42 53 57 37 22
207 154 192 227 249 239 249 222 201 145 176 196 280 297 372 327 292 231 230 258 253 314 324 286 259 223 204 267 171 139 125 121 100 119 92 54 52 45 51 48 38 60 61 69
203 146 229 204 223 235 195 204 211 180 198 337 409 390 326 286 249 198 185 236 344 229 320 262 208 227 258 125 100 88 90 76 72 80 59 53 49 53 59 63 56 51 74 71
220 203 192 229 205 132 184 220 176 219 213 341 391 271 264 251 229 215 227 285 325 400 298 175 246 228 149 102 71 65 66 64 55 41 72 82 76 61 67 59 52 43 50 59
219 229 260 239 184 229 251 242 260 245 372 319 280 238 207 209 292 255 231 272 288 433 237 283 285 250 145 108 92 80 85 74 63 44 35 43 46 51 56 61 55 50 48 46
224 251 243 205 243 266 252 224 213 307 314 295 258 191 190 168 193 252 220 277 280 370 276 304 318 193 142 128 120 75 67 70 66 51 51 57 56 48 38 32 40 44 44 37
234 242 244 239 216 325 356 321 285 280 239 224 187 192 202 202 189 218 240 322 369 265 325 333 269 181 131 91 67 54 49 62 68 69 68 69 77 79 46 46 44 37 28 21
274 265 315 305 290 321 247 193 181 160 174 145 156 168 247 212 208 221 262 275 240 367 356 308 232 158 87 26 40 56 111 148 148 131 126 119 116 112 98 77 63 46 37 34
321 298 298 345 258 193 157 133 123 107 115 128 157 187 222 184 207 193 206 246 269 349 346 295 160 91 82 65 67 82 86 88 77 77 87 102 108 108 110 99 85 65 54 43
323 344 355 232 223 150 124 118 98 84 98 108 126 165 201 177 205 252 236 339 315 324 244 157 132 121 99 78 73 69 66 59 63 73 70 75 77 80 84 83 70 71 64 55
325 323 268 214 210 143 113 86 78 70 75 92 103 154 135 161 196 224 231 281 266 191 157 155 145 131 109 83 68 65 67 62 60 82 88 84 85 75 58 73 107 59 47 54

GFSNW_con_3kmhel_321.txt.gz
Helicity
41 35 59 62 60 58 157 103 125 92 74 55 33 97 66 94 150 151 169 181 172 204 178 185 153 162 183 125 113 81 108 93 144 79 52 68 -24 95 2 53 26 62 145 82
58 45 58 64 81 132 191 149 99 105 134 137 119 99 74 126 153 167 175 190 229 165 187 175 189 170 155 109 93 88 97 87 53 14 77 -3 -2 86 32 -0 13 120 97 59
51 37 56 63 76 128 191 151 147 140 187 159 195 170 147 162 123 155 173 167 210 201 209 180 162 190 107 74 89 42 69 52 74 37 47 2 -45 68 60 32 41 59 126 71
48 38 55 58 73 123 154 122 203 220 247 222 211 215 191 205 202 179 185 169 211 207 228 237 205 203 129 81 72 62 64 58 92 98 98 38 -64 -4 52 68 158 29 50 65
48 43 51 51 65 158 158 170 189 312 269 208 216 191 219 249 230 259 237 268 163 208 236 276 192 238 182 134 82 66 42 71 71 26 47 32 7 14 29 54 131 81 69 35
53 46 53 53 64 163 201 234 285 285 280 263 252 247 232 240 295 179 192 230 205 155 165 182 206 124 143 159 155 97 83 77 42 -0 30 11 19 18 8 -47 48 60 73 113
65 52 44 52 57 102 186 244 291 322 319 295 260 276 247 167 233 253 185 227 288 206 117 95 174 182 171 159 111 119 96 89 35 21 58 5 18 -21 -27 -23 -11 57 84 150
59 45 41 44 46 85 192 220 244 257 354 284 234 265 257 192 165 222 189 186 194 161 179 255 284 288 264 183 125 118 83 63 29 44 21 28 51 35 11 5 15 44 78 132
49 62 54 51 87 129 158 158 203 245 288 256 270 278 250 250 243 227 182 139 120 179 246 360 454 463 372 326 217 172 108 85 42 30 -0 -30 11 21 -42 -53 8 46 41 76
44 61 72 79 120 106 148 191 216 256 302 282 319 289 262 241 257 276 220 186 197 156 283 419 460 505 386 412 348 256 167 96 32 -11 -22 24 54 41 -42 -30 25 15 -1 17
36 49 82 141 127 123 140 211 235 280 320 339 280 266 255 233 269 293 233 237 243 284 345 444 416 497 433 476 343 305 255 178 117 61 32 -6 51 -2 -26 -60 -45 -19 -12 -5
66 68 137 146 133 111 140 211 242 258 318 354 274 221 184 184 167 225 253 272 258 285 356 430 482 532 550 455 486 318 370 227 209 196 135 134 68 -14 -23 -48 -49 -29 9 21
87 96 149 165 119 99 133 209 269 308 305 249 217 270 239 218 194 143 274 258 254 264 271 414 490 531 440 562 463 394 329 356 295 252 278 143 85 21 3 -40 -28 -2 12 43
82 150 174 168 142 114 157 241 259 312 277 242 248 237 264 192 133 164 164 181 153 267 335 365 415 441 352 509 452 438 357 315 318 282 215 148 95 33 5 9 3 7 24 23
93 235 180 171 193 203 238 245 244 204 233 284 290 255 222 184 214 295 237 214 296 352 397 447 570 542 502 457 408 406 277 235 211 207 148 84 54 54 35 28 28 37 41 44
228 248 203 189 225 221 181 198 211 204 229 252 255 234 287 252 281 293 271 262 319 346 474 518 459 394 356 431 426 276 203 171 128 82 90 76 64 55 62 46 59 61 34 29
285 264 217 189 193 224 227 269 237 221 242 250 242 279 216 245 269 235 284 241 319 344 405 416 371 361 272 340 373 194 157 137 110 113 88 83 81 52 59 48 52 55 52 41
314 254 225 241 241 292 284 302 218 231 283 247 282 283 332 289 301 276 249 304 309 345 337 307 300 239 239 314 176 113 93 92 100 110 84 41 41 45 60 56 53 58 60 76
293 205 332 245 272 307 277 230 309 343 296 316 342 357 315 280 275 238 235 286 397 281 362 292 243 245 285 165 129 83 61 60 57 70 69 63 51 50 59 65 60 60 72 74
389 317 252 254 284 262 216 259 284 279 219 283 351 260 276 250 226 244 257 321 357 436 302 215 277 258 163 110 84 67 56 47 42 45 71 77 84 77 82 74 64 51 60 69
314 272 303 335 274 258 301 332 362 261 357 268 254 258 203 204 264 251 271 321 339 460 260 275 270 247 162 106 84 74 64 63 50 40 35 37 43 57 73 80 70 59 56 54
272 305 324 304 328 349 316 366 278 350 313 251 263 201 171 178 215 272 237 326 306 356 276 304 286 192 163 144 116 94 73 49 49 40 32 41 41 43 49 53 58 58 53 39
343 294 298 233 287 376 367 381 392 305 219 216 206 210 199 222 223 263 264 324 347 257 301 289 240 234 215 175 131 95 55 53 67 87 91 94 89 85 65 63 68 62 50 31
296 259 296 249 305 374 427 359 278 191 178 183 170 173 229 240 251 228 264 275 248 314 340 318 307 256 198 141 103 124 115 115 113 106 111 121 117 131 126 101 88 75 64 51
306 305 297 357 405 461 309 197 161 133 132 139 151 187 199 208 210 202 206 211 236 317 341 330 266 175 120 112 100 93 86 86 102 96 98 108 96 96 115 112 110 91 86 69
359 371 416 381 426 329 220 159 129 94 105 99 112 150 161 167 192 203 195 318 268 309 289 225 174 145 147 140 111 88 80 70 68 70 82 102 103 103 107 106 84 89 71 86
353 379 447 390 387 259 160 91 82 69 74 102 90 114 111 167 177 182 206 266 266 223 181 180 181 174 153 133 106 92 76 61 46 54 68 79 102 104 88 98 112 94 55 52

GFSNW_con_3kmhel_324.txt.gz
Helicity
42 20 10 17 29 53 136 82 134 97 57 94 34 87 78 96 130 156 170 192 186 216 200 174 173 190 176 103 81 83 111 94 100 41 98 51 -22 48 13 -15 30 16 31 1
61 57 36 30 41 98 120 110 106 104 79 128 116 116 114 121 142 160 197 205 240 233 210 249 193 169 111 125 94 106 88 117 56 43 54 63 -32 37 33 -26 15 6 64 -32
60 53 39 38 54 91 115 105 119 149 154 126 152 158 157 153 126 139 183 159 203 254 204 229 254 224 132 70 100 70 81 98 83 65 69 84 -25 -15 21 4 21 28 111 26
68 72 50 44 51 86 80 99 174 196 190 193 191 197 186 187 172 188 195 195 195 266 283 213 268 221 150 91 140 125 96 96 67 42 113 121 45 -24 -7 16 57 29 66 3
47 56 61 51 64 104 101 122 188 284 263 209 198 213 207 215 194 237 231 253 195 195 242 244 164 175 127 183 154 127 92 99 100 24 37 50 57 24 15 -26 50 20 38 34
12 21 39 52 61 119 160 163 199 244 291 256 252 253 222 218 203 177 148 212 187 160 108 157 120 124 121 163 180 160 148 123 62 47 31 37 8 32 0 -42 -11 20 49 91
17 17 46 53 73 108 153 173 200 234 285 277 212 261 248 157 177 199 159 163 185 228 162 80 186 226 224 195 169 129 179 153 75 44 9 -14 43 12 -20 -26 -4 15 24 67
40 28 41 51 85 165 183 179 197 215 341 246 177 266 223 202 160 186 178 160 185 162 146 254 248 275 263 279 221 198 193 128 109 86 31 49 50 23 -5 -1 5 44 65 72
38 26 47 50 99 188 203 172 193 249 314 222 248 214 252 242 248 205 182 145 137 190 258 318 352 383 313 371 328 210 197 142 115 138 50 37 81 23 -14 -55 0 44 36 63
75 66 87 82 114 144 196 192 219 295 362 296 323 271 260 273 270 240 176 201 194 217 294 339 352 396 386 452 424 381 294 228 199 147 104 85 112 44 -24 -14 22 17 -12 8
108 94 113 94 149 163 220 209 196 256 343 297 292 300 306 284 298 256 235 203 249 283 312 385 370 442 435 439 422 430 395 366 305 240 178 85 141 81 2 12 -8 -7 -16 -6
125 116 100 132 152 167 204 238 203 167 284 361 351 269 257 248 195 194 225 240 233 297 331 402 455 497 555 509 515 425 521 341 367 283 270 271 204 174 73 8 14 5 0 13
125 92 92 146 202 177 196 199 232 250 285 282 230 226 290 297 259 198 226 254 274 297 304 392 473 526 545 525 590 555 456 384 374 288 281 218 194 120 103 23 5 15 11 17
133 62 84 225 231 206 178 230 245 315 313 264 256 278 353 291 191 149 146 177 196 227 331 427 478 504 516 640 588 596 440 306 282 283 255 172 127 118 78 60 24 19 33 25
90 78 177 281 293 284 270 276 255 269 262 317 301 318 351 274 214 218 228 245 275 341 376 466 577 636 549 514 481 473 325 274 245 328 176 128 97 103 72 63 54 44 41 51
65 125 305 292 322 294 237 222 244 203 278 291 243 307 400 291 204 297 333 312 349 383 484 567 545 417 347 441 436 294 231 175 120 147 88 59 52 60 97 76 78 71 47 55
77 292 296 277 268 274 253 266 269 277 254 269 248 279 210 179 217 248 290 323 373 434 457 487 419 389 305 364 382 260 200 139 102 93 65 74 92 70 69 60 60 56 43 36
273 280 334 274 411 363 324 344 281 287 326 321 313 368 291 236 279 278 297 343 369 433 429 368 341 278 263 329 232 181 151 112 118 97 63 40 37 50 60 56 58 67 56 55
293 408 456 452 344 322 338 361 417 357 393 417 458 356 313 188 247 235 250 309 398 377 382 367 235 246 282 247 196 164 131 116 77 63 60 61 62 67 66 67 70 59 62 65
554 515 314 261 356 368 312 338 318 388 414 492 386 252 314 215 215 258 245 334 362 460 366 228 260 247 236 177 143 104 86 65 57 78 100 101 98 96 91 75 66 52 52 60
432 320 345 399 410 325 309 294 378 385 397 345 285 265 243 192 227 250 266 345 320 408 319 238 265 199 184 167 133 110 89 77 71 59 48 42 43 55 70 76 65 61 59 57
292 340 352 373 336 373 370 394 346 383 326 380 261 203 167 168 187 220 232 313 297 382 297 285 254 214 209 211 190 147 116 100 85 75 69 58 46 37 37 42 53 59 61 54
465 320 290 252 278 368 391 420 455 419 297 222 163 184 163 187 184 287 233 297 333 282 252 259 234 287 245 233 225 183 115 77 74 125 120 97 103 108 81 78 64 56 55 50
319 240 279 274 290 348 411 477 402 333 241 154 150 162 171 215 237 201 240 278 245 272 273 275 267 270 240 199 177 145 129 129 122 130 117 109 93 102 108 95 87 81 74 68
277 222 277 372 406 483 432 391 356 198 128 118 135 158 166 203 215 174 187 183 206 257 290 298 289 240 208 173 163 131 122 112 101 100 93 101 99 95 109 106 92 77 79 86
294 370 421 408 495 417 382 321 259 110 86 73 88 112 109 138 163 165 163 238 215 264 258 249 225 207 200 176 143 119 107 89 76 67 61 67 82 89 115 131 103 92 80 93
352 416 484 430 458 359 273 192 120 38 31 68 54 65 102 138 146 149 155 183 210 207 190 178 188 182 169 163 137 110 90 78 70 52 44 47 55 65 95 117 121 110 77 65

GFSNW_con_3kmhel_330.txt.gz
Helicity
18 10 14 14 12 24 23 41 70 98 78 106 136 161 187 199 174 179 193 199 186 195 224 223 201 193 245 324 268 225 210 371 398 220 238 151 225 77 6 -78 -11 52 6 28
38 30 28 27 21 40 34 54 67 92 75 146 134 190 171 193 225 208 269 233 247 258 265 275 196 180 235 183 214 257 213 338 378 348 280 208 291 191 69 40 8 -4 3 4
44 47 47 33 23 36 25 35 93 125 109 138 153 178 134 234 232 178 202 215 200 213 243 203 234 277 270 247 204 95 314 370 362 379 252 274 345 241 92 9 -38 55 48 -1
48 61 69 56 40 37 34 58 141 147 140 132 136 249 225 196 262 251 278 222 163 273 313 270 232 150 202 157 240 298 307 359 291 171 134 256 341 277 163 68 13 -6 38 -2
57 73 86 75 73 68 65 95 115 170 177 124 134 136 264 242 249 314 235 276 203 231 282 326 197 160 140 262 315 319 287 317 325 206 195 301 248 372 233 76 14 -20 -16 -48
60 78 99 95 93 138 145 185 216 232 205 206 228 217 229 245 346 206 174 168 217 237 216 202 145 139 127 243 188 138 286 352 390 359 320 289 283 365 230 149 74 19 -14 -26
64 78 94 105 125 141 219 253 302 319 357 295 323 259 261 216 280 276 246 225 213 268 242 256 191 140 132 244 196 251 338 393 351 414 328 514 311 222 186 145 80 41 19 -16
72 78 100 111 146 145 264 315 365 345 450 327 271 213 192 177 205 204 218 184 223 261 329 289 290 224 263 191 238 260 303 298 387 416 459 490 342 247 207 193 78 91 54 20
97 87 116 146 142 180 306 412 379 399 426 462 226 373 291 349 316 315 248 351 245 272 288 315 415 353 357 322 322 320 316 322 469 435 514 513 383 347 243 240 166 135 76 -20
97 112 134 145 174 195 294 360 409 479 462 470 305 359 358 393 406 375 366 353 367 300 331 386 422 369 343 334 392 446 416 408 405 305 380 522 420 312 233 369 181 131 67 -62
74 122 138 153 166 223 165 323 421 454 445 420 441 366 397 426 463 382 413 352 393 384 432 459 417 407 355 397 386 426 458 380 438 416 519 516 270 244 313 227 129 111 111 16
88 107 140 145 175 160 134 284 343 345 476 471 434 371 414 310 331 405 436 471 538 350 467 429 435 415 403 348 433 435 482 452 478 465 501 389 287 311 239 186 155 178 118 74
89 80 99 136 162 135 151 211 363 520 467 388 416 327 334 401 341 457 475 451 440 522 480 452 422 404 384 401 386 522 503 443 496 471 440 390 283 252 242 187 135 137 143 80
114 126 107 130 125 85 89 237 295 544 358 441 463 349 296 369 360 354 391 462 429 448 391 435 379 409 369 442 486 564 543 474 437 537 496 453 314 333 240 167 154 153 121 82
66 79 102 104 106 83 170 211 369 519 446 438 402 384 392 414 380 417 408 349 358 452 472 451 457 454 405 467 512 556 482 429 435 457 486 434 513 369 247 176 135 118 93 81
45 62 78 69 86 220 259 296 379 482 548 446 471 359 404 440 542 592 565 488 534 515 465 451 405 485 429 437 518 468 390 314 319 403 312 285 255 305 232 152 123 99 82 72
44 53 67 66 86 420 359 360 298 293 372 462 384 334 357 359 411 480 532 463 457 415 380 394 453 499 424 552 528 473 360 274 255 265 224 235 262 220 151 121 102 88 84 86
46 52 68 188 608 580 511 533 447 427 422 357 395 532 403 434 478 496 409 415 346 356 357 408 472 414 411 392 379 322 276 222 249 221 191 177 153 138 130 115 105 98 93 91
69 304 409 325 443 545 542 514 489 429 397 365 440 472 369 433 482 435 371 338 344 286 413 374 351 411 271 260 278 284 241 212 200 183 144 140 151 130 120 116 109 97 107 105
415 327 244 274 485 506 456 443 394 408 490 570 547 564 666 565 433 387 293 265 305 346 327 306 357 257 222 237 245 259 240 226 214 230 226 193 158 143 119 106 104 95 101 105
316 323 421 405 373 381 340 349 414 446 480 415 481 600 550 408 394 359 248 318 291 362 342 301 277 166 152 143 198 223 229 225 192 184 169 147 133 134 130 127 109 88 78 76
236 359 419 403 308 310 279 416 473 432 383 444 397 378 354 298 209 271 241 314 305 354 272 258 221 141 155 174 148 174 216 229 211 192 165 137 118 106 103 114 137 133 105 87
457 388 340 211 257 289 351 513 483 381 306 277 289 335 269 234 217 281 260 276 307 236 241 174 134 158 149 151 191 210 232 235 219 186 160 143 123 108 97 92 121 135 162 152
289 271 331 287 295 341 465 479 415 313 340 324 316 310 259 223 226 230 240 231 203 227 151 121 137 123 136 177 200 237 205 208 178 171 144 136 114 90 80 71 74 87 108 116
254 273 290 373 523 602 503 421 389 313 293 339 330 270 204 216 224 176 174 146 145 133 130 143 140 159 184 183 190 182 186 194 177 159 135 107 87 68 65 71 62 64 80 92
345 377 393 417 527 465 432 382 344 259 264 261 208 193 179 157 148 131 101 167 121 112 146 167 179 153 151 156 164 164 166 163 148 128 110 85 74 61 54 53 63 66 71 75
301 311 406 409 404 347 312 253 217 174 198 198 157 137 115 113 101 84 76 78 99 141 164 162 160 157 143 141 142 133 132 135 119 109 94 71 56 48 45 40 52 53 69 51

GFSNW_con_3kmhel_336.txt.gz
Helicity
10 26 35 41 40 61 60 50 67 112 123 128 151 146 112 141 155 173 189 201 203 220 258 289 257 216 234 312 355 336 268 398 381 249 181 212 281 284 332 412 361 471 531 426
15 23 28 36 51 74 44 71 70 132 137 118 136 170 157 168 174 158 187 165 220 273 274 264 247 238 198 360 377 352 330 367 395 272 270 237 333 314 362 423 462 496 528 425
20 28 32 33 47 71 65 82 108 124 183 164 182 188 168 148 157 202 232 210 286 341 320 304 305 291 212 265 299 319 362 447 491 415 330 336 384 339 400 476 489 496 567 403
35 31 52 45 44 67 107 112 100 173 200 172 219 219 236 224 188 242 246 261 279 374 319 341 358 206 212 237 276 285 426 440 457 345 251 284 276 192 403 540 451 503 319 429
44 47 64 62 63 84 167 192 152 210 227 260 281 252 252 231 235 386 290 298 272 348 392 409 325 355 341 279 348 387 468 446 445 379 258 223 259 216 179 296 361 362 391 271
51 60 59 76 66 114 236 203 239 236 222 291 307 364 314 193 243 245 237 256 269 349 304 291 222 294 286 319 408 447 531 435 412 413 364 312 271 147 255 386 399 413 412 288
55 51 51 76 92 121 233 279 315 276 271 281 384 381 302 264 307 278 312 269 374 343 384 357 357 306 274 343 315 415 472 470 415 410 422 549 265 341 282 318 291 346 321 333
83 85 81 77 96 83 195 251 380 356 319 324 299 270 296 300 244 223 294 340 357 466 422 383 349 326 307 207 193 201 280 363 379 498 542 396 293 317 306 339 254 295 314 292
104 113 105 87 88 103 190 212 298 323 288 347 286 245 310 297 305 310 370 403 367 503 407 432 441 440 365 316 389 340 345 319 447 613 563 558 299 277 299 318 282 201 249 273
91 92 110 126 99 93 204 291 267 289 297 305 347 365 316 406 398 389 431 350 423 425 470 475 490 452 438 450 434 431 548 535 445 499 518 430 372 372 313 434 229 208 213 252
67 71 67 70 88 111 159 246 292 267 304 305 313 329 329 388 386 420 334 406 344 395 424 413 401 395 416 477 505 493 526 425 573 502 545 441 370 459 410 342 347 304 291 261
-40 -31 -32 -31 -24 27 129 195 296 350 224 281 261 274 204 198 179 294 390 402 419 350 404 352 347 424 460 470 567 604 613 624 505 454 374 371 388 416 412 390 362 304 291 249
27 -9 -7 8 5 27 92 224 211 328 268 237 186 256 420 424 361 322 368 452 494 484 470 471 452 518 590 614 513 523 529 522 501 462 439 409 451 469 418 369 312 287 279 241
98 91 80 72 60 55 61 181 282 289 341 328 300 392 442 438 388 357 405 457 493 505 493 522 504 567 400 531 545 508 565 469 427 427 418 459 387 379 409 384 350 318 265 226
96 88 91 79 78 73 83 114 231 388 350 314 272 297 304 428 443 425 421 447 480 508 556 567 616 660 649 626 590 558 555 501 466 347 321 382 351 416 367 347 325 282 242 203
104 107 90 83 92 87 154 167 247 397 372 259 276 328 368 447 504 535 527 494 535 597 570 589 593 672 576 463 438 415 430 462 432 321 382 398 384 354 330 327 282 245 202 163
103 127 120 122 113 118 207 271 210 232 381 327 329 271 364 457 521 507 506 535 541 546 522 532 543 556 512 466 421 395 414 418 424 395 390 352 254 252 315 297 262 238 194 171
91 121 126 147 118 174 256 386 248 358 377 340 308 357 427 500 520 519 472 475 451 479 439 468 471 400 432 342 372 340 306 295 291 274 231 207 299 326 302 263 234 229 214 186
77 90 101 163 205 211 228 307 454 511 367 246 364 436 393 445 521 451 417 378 355 314 406 401 282 318 280 286 192 185 157 155 163 198 220 291 305 303 288 249 226 210 194 179
98 167 120 84 208 176 224 287 262 289 327 371 408 537 571 574 453 378 324 278 253 252 236 224 253 234 189 167 148 170 152 150 161 224 240 255 270 244 236 226 198 175 165 158
114 169 186 158 162 183 225 210 237 282 346 349 416 522 549 488 354 328 304 256 226 225 215 233 231 169 131 121 135 140 155 171 206 214 217 215 218 205 201 196 176 164 150 143
128 197 273 331 259 239 224 272 342 266 263 330 354 362 325 302 333 332 275 277 229 250 209 249 209 108 92 73 108 117 144 177 196 188 188 179 175 163 157 142 142 146 137 150
153 49 88 98 154 277 345 327 357 319 308 264 233 247 245 308 310 315 252 230 272 225 247 185 141 82 55 59 110 134 141 162 186 183 167 160 141 130 109 98 104 99 111 124
115 114 166 143 153 80 70 117 248 344 281 232 277 346 272 274 298 210 213 229 222 259 210 149 84 56 69 89 106 156 112 130 144 137 130 117 115 107 103 90 86 85 97 99
180 109 115 122 172 283 263 244 218 230 226 308 344 323 240 233 190 184 207 181 155 121 119 75 62 69 103 111 111 116 127 123 117 131 130 120 115 115 98 78 58 63 72 77
174 177 134 75 105 128 193 212 193 204 211 238 237 219 161 160 166 156 127 157 109 76 52 53 83 78 84 91 82 83 105 113 113 123 126 117 111 97 76 53 50 53 53 61
111 227 234 124 44 38 97 141 142 201 224 172 134 132 127 118 128 94 57 55 42 44 45 49 59 64 50 58 79 87 98 101 105 114 110 98 94 91 76 52 54 55 50 50

GFSNW_con_3kmhel_339.txt.gz
Helicity
21 26 31 39 46 70 100 89 97 125 170 174 174 173 146 165 151 183 172 210 219 248 243 245 230 208 194 259 367 321 267 396 416 278 301 304 238 325 426 469 371 497 571 569
36 30 35 51 58 78 86 106 125 197 195 173 188 193 187 160 211 174 185 192 206 277 282 254 236 262 206 334 344 289 320 400 401 340 287 281 377 378 471 469 504 550 598 442
41 44 46 64 77 89 120 121 134 176 240 237 219 218 186 193 148 175 232 262 326 339 326 291 304 294 221 233 267 287 389 474 528 490 345 441 420 383 468 464 547 554 711 458
49 53 59 61 93 94 164 158 142 190 210 202 236 240 243 241 225 193 216 297 277 391 312 355 336 283 304 322 236 314 419 467 461 398 293 436 359 246 440 580 462 521 316 443
28 52 69 44 86 92 220 243 180 222 255 268 287 297 301 276 238 293 259 311 268 323 372 337 282 346 366 357 340 335 427 419 422 431 336 339 386 235 268 352 294 343 258 247
64 53 58 63 77 145 253 230 276 276 233 328 354 396 375 240 215 180 210 196 190 294 250 247 213 242 288 328 420 441 471 500 511 453 399 397 500 249 221 236 369 310 397 317
86 89 97 123 104 192 306 296 339 318 331 315 361 342 276 243 293 203 247 260 338 299 294 334 288 236 241 334 389 457 489 433 455 527 414 553 353 309 335 304 250 296 322 337
88 133 111 125 147 141 338 324 325 349 309 295 294 270 271 249 223 218 222 272 384 406 375 326 279 326 351 305 201 201 305 409 445 556 568 453 487 489 435 395 244 260 289 311
82 76 74 127 162 178 234 333 355 333 302 309 220 218 222 231 206 207 288 357 353 432 368 365 390 402 337 284 344 321 248 267 437 624 626 616 366 389 349 292 264 134 162 220
42 49 89 89 67 122 275 331 387 364 339 289 254 308 299 306 315 303 345 274 335 366 393 410 416 432 496 434 418 413 422 473 389 367 497 574 528 521 446 439 197 182 181 225
82 64 38 39 99 74 110 207 340 376 398 345 341 285 290 340 330 318 285 280 285 347 381 385 383 409 454 550 492 473 501 394 552 485 588 572 582 601 414 295 294 259 294 288
125 108 71 33 9 2 -4 138 297 361 343 285 210 152 161 183 170 177 273 327 370 323 373 337 298 396 494 469 500 605 574 619 448 463 443 492 319 430 380 351 294 253 317 307
145 129 124 114 97 63 49 66 143 326 353 400 373 359 306 354 294 296 317 364 437 492 470 393 435 500 562 570 482 480 493 597 585 563 516 483 400 426 424 392 330 303 331 309
135 111 108 123 139 146 140 149 139 207 247 386 311 417 374 398 404 356 372 289 424 418 450 515 491 546 411 495 533 509 544 496 545 555 546 506 406 383 387 365 348 376 356 269
149 147 129 129 140 147 149 129 93 125 273 323 305 295 282 344 316 339 372 353 378 435 479 509 565 597 625 641 570 547 548 573 528 404 345 358 306 328 372 381 359 320 270 259
106 118 114 97 127 138 143 145 117 165 262 201 318 414 404 349 413 437 433 445 500 527 486 519 533 662 588 456 475 503 483 473 418 330 355 391 401 434 417 407 337 275 266 256
74 85 81 80 112 134 188 266 220 188 158 267 301 400 338 296 349 368 366 445 442 430 444 500 567 562 517 515 492 454 449 425 407 411 356 366 319 279 320 297 295 291 266 239
67 51 73 76 66 94 149 200 161 219 199 190 276 339 373 297 326 377 362 366 374 435 405 493 495 421 475 402 426 365 327 296 296 286 262 247 271 285 283 302 322 309 276 238
57 65 70 109 141 203 210 212 336 360 272 217 273 197 157 346 398 367 333 343 368 347 435 442 353 393 350 338 211 169 153 171 182 223 224 232 265 252 277 292 298 274 243 231
31 60 105 132 168 162 189 194 205 235 364 438 384 280 254 260 300 351 345 311 299 323 278 281 307 287 270 220 193 171 168 150 139 201 216 217 221 205 221 224 217 211 205 201
67 79 152 150 176 141 154 157 232 379 504 434 435 430 395 467 418 386 363 341 315 333 226 269 243 207 151 141 156 132 142 164 166 174 184 189 191 179 185 191 182 182 178 180
91 153 174 147 94 122 162 217 202 110 72 161 226 334 422 414 428 385 289 339 265 252 259 250 231 132 129 122 80 110 135 150 173 163 168 167 177 174 178 172 172 159 142 151
111 93 74 151 99 147 165 178 200 290 340 346 327 335 321 332 362 308 248 235 275 256 252 223 166 118 66 48 102 115 122 137 155 163 168 168 149 153 145 142 138 127 134 138
71 93 55 87 118 87 185 179 126 116 99 94 161 265 207 246 279 248 238 256 215 232 226 168 98 23 56 76 90 142 80 100 131 133 135 121 113 117 122 110 113 106 105 108
95 72 74 96 126 144 106 105 110 122 133 160 185 219 248 197 216 218 223 201 179 148 128 82 47 53 78 78 81 85 100 101 99 113 111 103 113 118 107 92 87 87 87 83
77 146 144 155 96 41 41 49 69 87 133 150 170 129 142 155 169 167 146 166 130 81 53 43 69 60 60 70 65 66 91 94 92 105 112 115 110 97 90 77 69 67 64 64
85 12 48 74 64 26 24 41 72 110 109 129 97 110 112 104 120 117 73 75 52 40 39 49 49 58 43 54 76 80 83 86 91 93 93 93 101 110 97 79 77 61 55 63

GFSNW_con_3kmhel_342.txt.gz
Helicity
39 41 42 56 69 80 129 119 119 132 160 210 225 227 193 214 200 250 229 212 242 266 238 223 257 281 249 302 358 338 269 385 355 277 327 325 371 346 449 534 505 604 692 667
39 40 42 50 77 93 119 150 170 234 280 246 254 252 250 222 241 218 180 169 158 230 239 243 221 278 293 343 340 308 266 402 361 301 289 310 387 366 490 570 619 799 775 594
45 43 36 50 84 92 161 197 209 233 282 281 266 257 221 244 200 215 230 226 275 330 306 253 282 326 272 227 248 316 364 531 484 404 329 385 442 415 448 520 635 705 877 539
57 38 43 39 70 89 187 221 201 269 258 201 254 279 276 286 249 207 210 274 290 389 293 326 400 313 352 326 213 330 453 510 386 301 245 377 402 464 449 606 639 720 460 496
60 56 46 47 29 87 216 224 185 244 306 294 282 278 336 287 281 333 273 321 275 314 355 350 232 267 325 372 283 350 496 529 410 369 335 283 310 388 371 477 455 495 352 237
48 67 95 117 157 259 267 244 250 265 257 292 341 401 381 300 307 253 223 215 192 275 233 227 192 210 291 305 400 395 533 501 516 481 411 320 404 381 275 275 321 364 344 278
54 66 85 111 165 327 468 422 401 316 275 274 363 319 267 209 233 201 259 216 334 339 323 310 289 250 247 304 393 478 509 472 505 468 435 489 382 340 376 332 195 360 440 309
50 52 53 69 101 223 461 456 491 422 300 317 297 296 265 226 218 195 190 223 386 453 394 350 314 340 367 282 273 394 407 471 424 506 523 477 360 476 523 466 296 363 299 240
99 85 75 73 73 80 329 449 490 460 363 357 279 285 279 258 231 225 281 263 341 408 322 328 434 450 348 290 297 269 249 297 482 583 564 537 366 399 407 359 341 228 281 195
124 138 140 115 92 80 120 216 436 491 489 363 463 431 317 349 355 268 328 316 326 293 372 407 400 414 399 375 340 307 382 438 419 450 559 614 590 575 473 399 243 238 229 297
156 149 143 143 149 133 119 160 175 381 471 337 411 281 256 295 336 230 255 293 293 324 373 373 344 349 329 401 389 389 424 395 556 550 624 544 620 681 437 332 345 347 349 314
170 158 159 161 132 145 154 181 118 176 266 281 201 174 224 275 234 291 358 365 315 203 300 279 263 356 445 466 411 493 486 650 470 512 480 531 368 575 502 442 401 373 365 310
150 162 144 146 136 152 186 214 180 175 212 258 312 350 302 293 216 250 314 319 339 388 447 348 343 369 441 468 392 386 427 569 581 609 575 555 419 494 471 434 396 377 356 305
139 129 138 145 151 132 139 205 187 239 261 238 200 225 238 352 395 340 401 296 417 353 382 420 402 385 355 396 414 427 488 534 550 561 555 481 420 377 417 435 437 410 359 325
107 117 109 110 113 121 138 153 154 172 304 414 314 224 200 250 226 246 306 333 356 423 438 461 481 479 498 567 534 481 582 579 535 456 437 417 373 269 390 386 358 342 349 344
40 48 58 67 87 107 172 129 112 144 227 284 299 367 384 367 376 447 450 476 459 466 466 458 440 553 515 413 422 473 558 555 505 432 406 397 361 390 360 399 379 375 338 282
47 50 41 24 21 79 202 295 205 214 186 214 305 447 535 437 419 395 375 386 430 478 482 509 504 473 512 491 385 529 534 495 483 465 351 340 302 272 312 336 354 320 303 271
56 42 38 49 37 58 136 140 64 66 134 183 222 171 173 90 186 274 295 373 427 569 465 460 474 429 487 369 517 489 389 343 334 313 279 249 242 268 291 283 278 281 264 268
44 27 23 29 75 138 135 148 205 240 223 272 286 279 264 232 269 313 325 323 412 369 393 391 352 336 356 439 400 288 198 188 165 226 237 232 225 219 242 248 267 255 246 252
16 60 35 73 140 146 132 76 122 136 261 400 349 380 387 413 337 193 151 195 181 122 210 312 351 336 420 379 331 256 177 156 152 192 170 173 184 175 192 208 213 217 211 211
66 23 46 126 127 117 99 107 189 211 256 287 373 417 394 407 434 412 309 195 221 166 166 256 282 284 241 182 171 176 158 132 121 133 143 142 144 142 164 183 173 172 177 176
86 31 90 134 102 115 99 134 160 193 193 211 168 191 281 347 369 349 310 244 239 272 307 347 341 221 169 136 122 95 107 124 146 142 154 156 175 162 169 165 159 143 144 155
95 69 118 36 74 98 77 107 87 110 111 86 114 104 145 176 275 290 268 234 249 275 304 252 217 160 89 68 82 91 106 127 143 148 148 145 140 136 132 136 127 132 140 130
16 59 73 59 73 69 104 110 99 67 44 32 89 159 118 131 142 181 248 234 193 183 211 168 95 23 55 73 68 114 67 90 111 106 106 101 101 101 106 100 115 121 112 105
84 87 81 104 81 77 48 57 59 34 31 36 82 119 124 134 156 136 137 164 160 134 105 70 42 54 83 76 58 52 84 85 80 86 85 80 91 98 98 92 95 101 94 82
71 66 85 85 42 45 57 24 10 17 13 33 39 61 80 88 97 92 111 138 120 80 56 46 59 58 46 48 42 49 70 75 75 79 84 93 92 88 89 76 74 78 80 70
68 41 43 5 7 12 6 15 28 4 6 44 50 82 96 75 77 73 62 66 60 39 34 41 40 43 35 48 56 53 67 79 82 82 73 76 97 107 98 77 81 73 62 68

GFSNW_con_3kmhel_345.txt.gz
Helicity
40 43 41 43 56 66 108 125 127 148 187 223 232 242 199 196 184 220 214 228 211 201 190 176 215 233 208 305 343 315 317 391 413 294 356 369 366 385 444 535 444 647 605 700
46 47 45 43 46 55 97 142 192 242 308 233 283 267 232 209 215 193 187 185 199 218 196 214 191 205 264 371 385 309 299 406 414 367 372 304 371 407 469 580 597 689 680 591
46 58 62 45 47 63 125 148 177 210 284 289 246 228 174 177 191 206 232 263 320 313 283 269 299 299 240 285 291 392 385 559 567 450 370 376 422 425 405 460 689 553 777 536
43 54 76 80 61 90 156 149 138 199 199 158 173 241 231 214 222 183 187 273 286 363 314 315 359 302 372 320 237 420 512 511 475 365 311 401 398 522 493 594 555 628 397 455
54 58 68 93 95 155 205 161 149 208 231 213 175 177 256 201 239 335 268 325 284 349 354 419 207 227 256 300 244 422 543 564 433 366 293 279 292 358 451 502 451 428 366 246
56 66 73 81 138 349 367 312 293 276 179 248 295 400 407 321 268 275 311 289 270 342 369 281 197 217 278 298 386 432 608 578 528 482 410 369 391 435 334 296 303 354 301 341
56 65 55 69 103 389 441 419 401 330 273 296 315 276 248 223 276 199 265 200 281 322 361 285 257 235 269 338 460 484 520 516 539 513 420 442 375 326 204 240 208 300 305 247
115 93 78 61 63 133 437 414 491 378 262 251 244 224 213 204 225 216 184 197 259 404 342 290 245 333 403 347 353 446 435 495 483 475 483 443 252 435 516 492 270 276 259 200
115 116 127 121 100 82 138 389 446 398 322 271 204 217 231 252 221 185 254 220 245 366 304 309 356 390 347 298 321 421 244 334 435 489 538 515 381 353 397 464 291 180 224 119
111 132 132 130 142 149 154 193 266 434 400 283 343 391 305 411 403 324 297 280 270 284 304 338 345 399 394 399 350 377 473 459 406 408 491 488 430 533 506 354 283 199 211 230
117 111 144 153 167 165 188 219 173 254 324 292 352 221 334 499 442 357 334 335 347 367 389 435 455 419 388 439 391 422 441 387 518 452 569 486 559 679 507 423 383 337 319 335
141 120 117 147 149 162 189 210 179 162 201 285 213 151 189 261 225 273 344 383 374 293 331 367 371 366 458 493 463 417 409 519 362 416 408 442 302 590 621 532 384 325 284 336
158 145 133 118 128 138 149 217 210 266 277 262 279 307 270 239 189 216 305 360 401 469 576 401 340 402 561 523 384 396 368 474 510 551 519 537 478 593 528 472 418 378 397 395
109 116 115 115 95 104 130 207 218 246 309 372 353 337 286 307 287 250 355 286 393 397 415 481 495 552 382 314 393 377 357 422 450 507 514 482 391 342 406 399 403 445 453 420
78 80 41 48 62 76 77 142 208 238 315 412 355 234 179 240 224 207 207 205 231 387 432 482 501 397 471 647 631 476 610 614 535 427 436 430 409 349 333 370 366 369 394 404
68 78 62 32 29 26 98 160 155 187 237 262 305 390 417 403 399 418 446 420 391 461 404 395 417 591 567 464 439 418 597 594 588 476 432 480 439 426 374 376 385 378 373 342
24 11 33 64 78 78 141 228 138 127 63 181 229 330 378 407 373 360 348 370 380 388 391 433 500 479 466 456 440 450 528 528 504 472 376 394 360 307 320 327 334 343 366 353
30 34 -24 27 74 44 37 74 48 58 101 88 147 177 115 118 40 112 270 291 299 378 383 370 416 430 487 454 500 431 422 485 491 443 386 322 282 286 288 274 270 277 281 263
33 48 65 52 50 60 60 107 125 148 145 178 206 235 175 288 346 331 314 302 256 268 280 276 312 335 278 352 304 354 334 316 267 313 304 256 219 183 193 205 230 233 227 232
35 73 63 41 54 82 122 89 109 117 256 346 257 355 378 340 303 309 307 293 266 241 211 172 167 219 375 369 414 382 282 216 170 208 172 131 142 137 161 189 189 191 183 188
84 66 78 82 69 53 37 63 87 90 133 297 311 284 297 300 316 349 377 371 378 326 281 332 297 249 196 231 292 303 208 158 121 115 124 122 105 98 145 141 130 144 153 154
65 76 68 59 57 89 68 90 102 108 89 88 166 201 208 200 227 229 232 232 216 255 279 253 244 229 257 215 167 120 98 97 113 97 117 129 163 132 123 120 115 107 121 133
90 70 51 38 18 24 51 41 73 70 93 51 40 62 75 87 126 149 140 148 209 191 183 185 158 145 84 52 60 77 78 75 89 98 124 123 109 100 105 95 92 111 116 107
29 22 38 28 60 74 66 80 52 34 21 5 23 48 61 88 116 122 123 128 115 136 154 119 103 54 39 56 63 81 30 47 83 89 76 82 84 74 70 69 91 104 94 93
32 59 70 70 40 56 31 9 12 14 23 38 33 39 44 70 85 101 111 105 92 91 94 81 33 34 70 58 42 54 69 63 59 57 57 56 69 79 71 69 81 81 76 73
36 55 -2 25 13 31 38 50 27 47 14 17 36 38 61 66 72 88 73 94 97 74 47 44 34 39 51 59 55 57 57 52 51 49 55 69 68 64 58 56 52 55 70 72
-38 -47 -3 -58 -16 41 18 31 26 7 29 55 49 60 71 42 54 54 45 52 46 31 25 33 38 39 26 51 74 67 57 42 45 64 60 57 71 81 73 53 61 66 66 69

GFSNW_con_3kmhel_348.txt.gz
Helicity
76 71 72 74 77 100 104 134 140 164 184 216 229 231 187 170 151 175 158 184 162 180 158 172 198 160 148 222 248 254 250 306 346 294 371 377 469 451 395 377 340 561 654 547
69 68 64 68 76 96 140 167 215 202 265 221 246 246 224 197 177 161 145 138 136 179 169 183 142 181 242 274 294 194 259 310 310 283 288 302 363 400 422 472 525 562 532 567
68 60 57 65 71 87 183 261 230 256 305 309 266 235 196 193 142 171 212 247 268 274 239 199 244 252 229 199 209 358 338 443 458 294 294 334 348 324 325 387 593 513 623 362
56 78 70 62 76 135 244 228 234 195 193 118 138 200 253 197 199 146 149 164 176 239 208 238 264 249 307 266 231 353 428 417 393 305 297 334 319 399 417 557 547 531 349 343
52 69 94 94 107 203 310 235 215 208 184 162 95 136 165 118 158 230 203 217 191 259 272 304 147 180 195 227 169 371 519 469 405 338 284 232 246 296 526 593 482 427 360 305
47 64 72 119 125 372 371 297 286 251 164 204 237 275 226 129 97 121 130 156 144 209 238 188 173 170 208 237 300 371 498 483 537 391 406 374 302 523 523 674 379 363 343 341
94 77 75 78 114 425 415 406 378 299 240 269 310 194 141 155 169 150 132 147 206 216 253 235 203 170 179 247 360 475 538 534 539 453 391 414 413 374 266 208 161 251 258 231
99 96 110 125 102 112 389 374 457 388 268 228 196 168 170 142 138 145 135 169 214 272 255 198 151 206 260 242 238 443 471 514 491 520 484 461 206 471 389 472 196 184 243 185
122 126 126 117 121 113 147 291 411 404 313 295 176 200 199 231 241 199 229 167 189 348 265 276 330 321 287 288 281 377 258 321 445 517 653 544 356 245 282 352 260 197 172 93
112 111 112 127 131 111 136 198 187 360 338 256 264 346 242 359 291 333 263 239 259 266 288 334 373 420 452 436 351 375 448 448 398 362 526 521 386 366 373 288 302 226 164 136
132 127 119 113 129 166 188 191 166 251 219 232 233 165 233 385 371 392 297 332 416 357 428 492 455 440 507 486 420 494 547 485 545 469 579 572 540 599 396 402 329 393 359 310
133 160 161 140 105 110 169 211 210 201 250 285 195 152 136 174 204 262 287 373 252 356 390 405 303 457 532 401 465 493 527 481 420 422 477 397 312 469 499 500 527 469 373 297
102 108 62 98 148 117 107 186 189 234 266 252 208 254 270 234 216 200 305 388 389 414 444 421 455 465 448 390 536 399 417 408 493 498 306 405 483 488 528 570 524 369 300 305
64 80 62 69 66 76 72 162 166 202 282 319 240 304 256 302 325 296 342 279 374 444 377 400 429 508 336 425 302 416 396 370 334 305 193 444 343 327 423 507 421 359 364 366
40 41 49 67 40 13 36 91 121 158 251 421 355 224 198 246 274 265 289 296 326 360 311 290 225 138 240 385 494 489 456 401 363 290 417 453 439 437 411 410 351 341 361 423
32 25 31 37 29 32 77 137 90 133 188 218 269 248 284 331 303 357 368 371 299 322 334 344 373 455 380 328 255 222 393 466 508 470 488 543 538 532 445 390 359 360 383 357
31 36 40 33 32 12 69 148 118 100 146 227 197 199 249 213 185 169 212 271 285 309 255 267 303 331 365 382 341 373 338 408 485 488 418 409 381 315 365 359 376 390 404 380
16 17 29 54 58 34 -29 95 49 58 6 59 151 47 0 48 97 118 159 142 163 241 264 266 278 346 396 341 293 412 439 409 451 412 361 363 339 356 348 305 282 292 284 266
26 20 56 75 76 55 16 29 99 125 75 50 150 147 136 183 197 159 142 156 147 195 225 285 292 338 308 317 272 272 263 306 261 335 316 290 293 261 263 213 196 211 220 226
64 96 77 73 99 57 51 46 98 98 127 176 121 147 154 178 181 191 165 167 162 154 166 199 216 292 365 393 368 339 330 288 239 251 228 194 206 173 137 162 179 182 177 181
83 71 94 64 62 50 39 37 55 158 139 161 173 180 214 242 192 146 191 208 193 191 184 250 231 241 246 280 352 347 303 246 214 200 190 143 96 99 120 121 129 154 161 158
66 62 62 47 65 43 19 48 61 84 83 120 115 97 123 174 230 232 188 196 143 143 184 225 205 203 186 162 169 201 197 149 135 108 115 123 122 100 109 123 116 109 120 129
49 50 52 33 21 1 30 39 45 53 69 63 38 40 38 54 94 116 124 126 166 177 173 171 143 129 110 103 97 81 72 73 87 100 102 115 110 100 85 80 91 107 105 111
29 25 -11 10 6 40 39 32 23 27 17 27 30 37 55 53 82 116 147 185 157 158 168 128 115 84 61 42 42 58 53 67 81 92 87 78 62 65 69 68 80 86 80 93
-5 34 34 32 23 33 25 29 20 16 10 16 18 33 59 80 100 110 132 132 126 116 109 87 62 34 46 55 52 63 69 65 67 61 50 54 62 57 56 55 57 56 60 65
-10 13 18 11 14 28 27 45 39 53 32 57 47 45 74 86 98 106 112 122 123 94 83 57 45 32 39 48 48 54 64 56 49 52 57 62 53 48 48 53 39 39 49 62
-30 -31 -30 -68 -67 -64 -41 16 51 47 99 85 81 104 109 51 78 102 57 61 70 59 35 40 45 42 38 50 63 61 55 50 56 63 58 60 67 64 50 32 44 43 47 53

GFSNW_con_3kmhel_351.txt.gz
Helicity
74 76 79 79 90 119 123 201 212 182 194 265 290 254 278 216 158 151 194 230 221 197 170 181 195 212 182 214 203 190 177 233 264 178 318 330 279 308 401 347 248 354 423 453
85 85 86 86 104 114 190 251 276 203 287 306 235 239 264 214 196 191 182 206 185 199 240 271 174 226 292 226 208 189 210 265 255 187 215 273 284 303 364 382 418 387 486 489
86 90 93 97 97 78 213 281 264 315 351 351 334 241 174 182 172 203 226 240 263 268 259 199 307 216 166 145 169 309 330 319 303 219 235 228 243 246 307 446 479 512 579 397
105 112 125 123 131 125 317 384 362 306 257 203 193 282 321 177 203 167 122 221 171 249 238 208 188 156 223 202 210 276 297 295 207 181 153 201 197 253 339 472 590 508 373 339
87 90 95 109 125 127 333 287 274 260 282 187 131 143 218 97 139 189 169 188 121 180 220 218 138 145 149 137 108 261 317 289 227 158 169 149 161 216 356 518 473 471 346 248
105 58 77 119 189 316 484 351 316 261 158 202 210 222 159 119 110 109 65 93 106 187 187 147 133 114 163 189 226 228 365 363 382 272 298 269 229 294 334 364 481 426 298 303
85 80 110 94 56 377 523 490 477 376 295 230 215 147 111 99 126 124 67 62 122 150 184 198 182 154 149 218 290 384 437 457 460 404 368 368 331 318 287 235 217 327 275 167
117 108 96 80 111 128 473 534 518 402 263 258 136 131 176 128 134 106 94 133 171 256 259 202 161 161 217 216 218 356 473 503 496 468 381 348 211 337 456 445 241 241 210 179
103 114 122 116 105 114 139 225 395 394 173 146 115 112 81 185 151 125 138 120 143 349 298 273 306 347 287 305 262 218 223 321 422 418 593 494 275 399 414 495 358 279 195 116
158 143 135 136 144 156 188 208 196 228 223 203 153 248 211 277 238 261 157 132 273 327 333 327 356 390 348 332 338 419 424 493 437 401 542 619 390 536 574 414 404 276 202 156
158 163 170 177 171 167 204 202 219 250 265 159 202 175 203 267 266 274 332 307 398 483 409 407 467 366 354 355 280 424 479 439 422 525 641 650 682 748 639 403 271 230 290 322
91 109 102 98 126 132 122 217 195 203 279 339 315 255 211 169 186 283 308 328 262 241 194 320 285 337 422 215 186 312 412 617 616 564 584 483 329 416 301 436 349 344 398 423
71 78 72 78 93 81 93 192 177 211 261 263 216 257 243 271 264 274 311 377 358 356 353 321 311 312 516 400 378 159 280 547 553 368 373 402 396 338 382 466 333 452 498 450
31 38 34 46 51 47 72 121 113 140 190 320 295 223 233 209 215 204 263 257 385 403 377 255 305 249 258 289 260 249 242 208 376 450 446 288 342 348 354 307 501 454 485 408
36 37 34 45 50 66 73 91 76 61 178 284 187 159 152 212 224 269 302 297 283 302 329 411 374 263 205 252 373 512 473 385 307 60 252 396 356 282 446 397 422 451 395 374
37 42 44 37 39 47 89 61 41 71 176 184 182 164 105 171 197 197 233 243 212 243 277 281 270 442 332 324 247 114 37 259 405 315 280 261 327 439 427 456 454 364 352 343
17 25 33 37 44 82 139 107 66 76 135 224 241 221 243 305 265 279 263 249 238 259 244 253 275 197 134 258 349 344 257 237 201 337 415 436 400 368 439 427 452 428 452 428
24 15 15 26 41 79 98 73 52 13 -39 35 174 238 202 236 151 172 193 140 158 173 257 227 229 251 287 264 197 256 256 243 257 316 344 348 360 387 387 371 329 304 319 314
28 34 65 86 69 84 93 69 51 61 27 50 60 135 123 57 107 148 173 185 106 181 174 208 219 235 218 282 280 223 208 257 227 299 319 320 327 299 318 278 241 250 263 256
71 98 79 59 85 92 70 49 70 76 94 175 149 162 112 143 58 51 27 9 23 29 94 155 147 212 289 324 306 274 234 217 229 278 277 237 244 235 222 221 224 184 162 169
99 78 71 87 92 55 51 66 77 101 106 195 222 226 158 143 127 135 185 185 147 145 178 209 166 164 193 197 237 257 283 289 294 257 250 214 176 161 138 131 143 146 135 134
60 62 60 45 49 54 54 50 77 108 102 83 68 63 77 108 131 138 133 173 156 161 218 203 170 214 170 146 167 206 216 203 208 195 184 156 142 119 121 116 105 106 116 116
47 45 46 50 44 25 46 40 54 49 64 70 44 31 35 40 58 87 92 107 152 159 160 177 227 188 118 121 133 153 135 108 95 106 117 124 119 116 102 102 107 100 98 101
15 29 6 18 22 35 32 12 12 34 30 51 35 24 53 63 64 94 97 136 138 175 180 187 176 131 115 94 52 54 56 59 71 83 84 87 87 92 93 104 94 87 74 78
-27 -19 20 19 -7 30 30 27 30 28 39 42 44 45 64 86 102 133 141 151 174 171 201 147 119 94 66 62 50 44 50 58 61 63 70 81 87 85 84 76 67 60 63 66
-7 -19 13 -32 -19 21 12 46 60 76 61 67 92 90 91 124 170 168 194 198 222 178 105 88 73 70 56 57 55 54 62 62 72 76 80 80 71 70 80 74 54 53 56 50
-9 -4 28 22 45 59 86 75 73 52 53 97 94 143 212 129 177 225 155 170 115 107 91 53 49 51 55 63 71 75 75 76 80 88 79 82 92 89 68 52 53 57 54 57

GFSNW_con_3kmhel_354.txt.gz
Helicity
71 72 72 67 93 111 135 214 207 165 205 327 343 310 331 301 271 254 250 268 280 261 263 233 236 224 217 291 308 240 200 272 320 287 325 327 319 302 414 347 272 377 423 369
81 86 87 89 105 163 198 267 261 227 294 349 294 296 244 270 282 213 191 223 207 312 286 320 234 286 340 340 286 258 242 315 362 372 359 302 298 287 338 324 336 387 364 410
79 88 97 109 119 130 205 290 276 340 386 359 367 271 215 273 173 202 233 251 339 340 324 325 333 341 306 231 248 317 262 395 401 330 256 238 225 198 238 385 485 443 484 256
93 105 121 120 152 181 262 322 397 348 311 270 253 335 343 241 288 240 229 256 307 341 311 328 330 308 290 221 179 276 275 355 286 188 156 203 176 272 287 351 417 512 290 345
63 95 134 123 160 238 424 487 513 474 424 337 232 193 255 219 247 307 203 206 131 199 186 185 149 152 208 181 142 232 237 252 198 215 142 150 131 163 333 418 429 411 363 242
162 130 213 96 178 291 392 377 345 349 278 373 339 349 263 209 171 154 125 138 131 140 131 126 109 121 132 158 199 193 233 261 284 256 196 217 221 228 300 340 475 454 399 460
-23 -1 -59 40 96 73 485 557 506 448 311 284 317 225 171 146 168 167 134 62 143 156 164 190 193 94 78 114 237 320 335 367 364 358 363 344 289 261 232 279 259 371 397 255
120 98 96 89 15 -86 -33 178 315 351 330 258 236 206 186 157 128 108 104 120 157 244 266 149 111 116 141 140 189 353 397 475 425 466 431 378 245 356 466 418 271 333 317 216
184 175 140 114 131 148 143 103 215 161 193 158 83 172 190 179 183 140 101 112 179 349 298 282 223 236 235 184 213 172 251 313 423 435 532 470 325 295 447 504 356 414 368 190
111 141 175 171 161 157 197 193 164 261 267 191 207 249 179 217 143 120 88 39 197 249 256 271 287 321 348 344 404 494 506 482 420 400 486 561 365 382 433 466 431 373 277 114
105 98 107 134 141 163 192 223 174 266 295 203 190 148 134 172 236 254 256 176 354 314 282 373 425 365 333 318 319 368 473 561 537 493 512 504 600 822 723 474 526 334 273 230
103 119 110 112 115 108 100 166 153 155 260 330 339 257 198 196 221 244 318 390 296 256 306 356 318 372 389 403 326 300 302 406 481 539 604 422 314 373 305 602 450 424 330 456
56 55 61 77 86 94 87 123 132 166 202 200 218 266 221 216 247 269 314 404 386 378 375 296 350 461 384 342 241 141 168 344 404 386 440 357 341 328 430 453 523 408 393 415
25 23 25 33 30 32 43 81 97 137 195 215 203 195 187 109 155 186 208 211 305 277 329 366 301 270 484 382 305 291 339 357 371 364 267 244 173 396 452 348 263 285 281 273
16 28 39 49 53 39 53 64 77 88 153 258 238 157 172 199 200 235 317 238 226 241 228 247 246 202 157 258 390 382 253 182 231 185 88 183 409 380 277 246 242 101 181 276
11 13 24 32 41 47 90 68 73 89 104 88 111 98 77 140 195 231 195 191 185 211 221 263 157 -98 42 -47 223 168 207 274 314 257 194 150 166 274 244 215 189 180 295 393
19 12 8 9 19 73 120 126 101 88 15 40 86 78 267 382 332 346 330 362 331 313 309 280 235 217 258 258 242 168 208 104 93 276 328 269 292 226 276 308 458 437 486 494
24 22 36 30 28 51 81 60 26 75 57 26 16 -7 33 127 223 255 292 201 245 281 336 274 212 169 105 16 -1 78 145 160 196 205 250 258 230 288 324 313 307 326 328 344
36 64 61 87 86 73 70 83 80 99 110 90 79 62 52 12 51 99 148 148 106 141 142 182 200 216 161 214 248 229 210 189 126 162 187 193 206 214 225 230 247 276 308 291
76 99 86 50 73 57 54 66 80 90 121 212 168 184 144 168 78 101 148 129 148 117 174 250 266 287 324 306 295 225 179 150 140 172 176 178 199 218 231 243 267 254 241 230
109 82 84 87 60 64 71 73 79 130 164 185 167 134 157 180 138 166 184 177 161 128 139 263 239 266 292 278 253 250 258 233 224 224 258 203 175 178 197 229 228 206 160 130
43 62 61 42 65 60 75 112 109 128 149 135 78 109 54 71 84 97 104 130 150 176 211 224 229 236 163 103 100 144 170 191 235 248 246 233 213 169 157 138 118 109 107 102
23 18 31 41 61 82 50 53 73 70 52 45 60 55 47 52 68 90 93 97 148 158 172 194 205 164 106 80 93 118 144 162 155 162 146 136 128 120 97 99 94 90 94 92
-7 7 22 24 27 44 42 28 28 37 37 46 57 58 72 69 78 101 112 148 160 186 209 224 192 168 135 129 100 92 77 84 84 92 87 87 92 96 97 93 80 91 82 67
1 7 25 35 11 25 29 31 34 35 37 33 43 53 80 104 135 157 174 188 202 239 286 225 179 111 111 88 72 63 60 65 75 81 90 93 91 85 81 71 71 75 79 72
-7 5 3 9 8 54 58 62 59 38 43 35 26 65 114 158 224 250 320 350 393 338 239 174 94 98 87 69 63 58 62 71 84 88 86 83 76 73 69 75 68 60 62 55
-3 -8 36 18 35 32 51 24 24 8 7 19 28 89 125 101 163 194 182 210 163 129 111 77 73 74 74 57 58 71 84 90 91 93 89 83 90 99 96 69 57 55 48 49